Regional Weather Roundup
Issued by NWS

Home | Current Version | Previous Version | Graphics & Text | Print | Product List | Glossary On
Versions: 1 2 3 4 5 6 7 8 9 10 11 12 13 14 15 16 17 18 19 20 21 22 23 24 25 26 27 28 29 30 31 32 33 34 35 36 37 38 39 40 41 42 43 44 45 46 47 48 49 50
000
ASUS44 KMEG 251110
RWRTN
TENNESSEE HOURLY STATE WEATHER ROUNDUP
NATIONAL WEATHER SERVICE MEMPHIS TN
600 AM CDT SUN JUN 25 2017

TNZ002-004-019-021-049-052-054-088>092-251200-
WEST TENNESSEE

CITY           SKY/WX    TMP DP  RH WIND       PRES   REMARKS
MEMPHIS INTL   CLOUDY    68  59  73 CALM      30.20R
NWS MEMPHIS      N/A     66 N/A N/A MISG        N/A
JACKSON        CLOUDY    63  61  93 CALM      30.20S
SOMERVILLE     CLEAR     63  61  94 CALM      30.19S
COVINGTON      CLEAR     64  63  94 CALM      30.21R
UNION CITY     CLEAR     57  57 100 S3        30.20R FOG
BOLIVAR        CLEAR     63  61  94 CALM      30.20S
PARIS          CLEAR     55  55 100 CALM      30.20R
HUNTINGDON     CLEAR     57  57 100 CALM      30.19S
LEXINGTON      CLEAR     61  59  94 CALM      30.20R
SELMER         CLEAR     61  59  94 CALM      30.20S
SAVANNAH       CLEAR     63  63 100 CALM      30.19R
$$

TNZ008-025-027-028-033-062-065-066-251200-
NORTH MIDDLE TENNESSEE

CITY           SKY/WX    TMP DP  RH WIND       PRES   REMARKS
NASHVILLE      CLOUDY    62  57  83 CALM      30.21R
PORTLAND       CLEAR     57  55  94 CALM      30.20R
CLARKSVILLE    CLEAR     57  52  83 NW3       30.20R
SMYRNA         MOCLDY    63  56  78 CALM      30.21R
COOKEVILLE     CLEAR     59  59 100 CALM      30.19R
GALLATIN       CLEAR     57  57 100 CALM      30.22S
CROSSVILLE     MOCLDY    58  53  84 CALM      30.22R
$$

TNZ061-075-076-078-094-096-097-251200-
SOUTH MIDDLE TENNESSEE

CITY           SKY/WX    TMP DP  RH WIND       PRES   REMARKS
FAYETTEVILLE   PTCLDY    64  57  77 N8        30.19S
TULLAHOMA      CLEAR     61  55  82 NW3       30.22R
WINCHESTER     CLEAR     63  61  94 CALM        N/A
MCMINNVILLE    CLEAR     61  61 100 CALM      30.22R
COLUMBIA       CLEAR     63  63 100 CALM      30.19R
SHELBYVILLE    MOCLDY    63  59  88 N5        30.21R
$$

TNZ017-018-042-046-047-251200-
NORTHEAST TENNESSEE

CITY           SKY/WX    TMP DP  RH WIND       PRES   REMARKS
TRI CITIES     MOCLDY    64  61  90 CALM      30.16R
ELIZABETHTON   CLOUDY    63  61  94 CALM      30.17R
$$

TNZ012-013-036-069-073-074-251200-
CENTRAL EAST TENNESSEE

CITY           SKY/WX    TMP DP  RH WIND       PRES   REMARKS
KNOXVILLE      CLOUDY    66  58  75 N5        30.16R
OAK RIDGE      CLOUDY    63  59  87 CALM      30.18R
DOWNTOWN KNOXV CLEAR     64  63  94 CALM      30.16R
GATLINBURG     CLOUDY    64  61  88 CALM      30.16R
MORRISTOWN     PTCLDY    63  61  94 CALM      30.16R
JACKSBORO      CLEAR     61  55  82 CALM      30.21R
$$

TNZ083-085-099-251200-
SOUTHEAST TENNESSEE

CITY           SKY/WX    TMP DP  RH WIND       PRES   REMARKS
CHATTANOOGA    CLOUDY    66  59  78 NW8       30.17R
$$

SKY/WX REPORTED AS FAIR MEANS FEW OR NO CLOUDS BELOW
12 THOUSAND FEET.





USA.gov is the U.S. government's official web portal to all federal, state and local government web resources and services.